Home   Weather   Banjul   Past weeks

Flag for Gambia Past Weather in Banjul, Gambia — Yesterday and Last 2 Weeks

Now
84 °F

Broken clouds.


Feels Like: 96 °F
Forecast: 79 / 86 °F
Wind: 7 mph from East

Location: Banjul / Yundum

Current Time: Jul 29, 2017 at 11:45:50 am

Latest Report: Jul 29, 2017 at 11:00 am


Visibility: N/A

Pressure: 29.95 "Hg

Humidity: 84%

Dew Point: 79 °F

Location of BanjulLocation

Past Weather in Banjul — Graph

°F

Banjul Temperature Yesterday

Maximum temperature yesterday: 88 °F (at 1:00 pm)
Minimum temperature yesterday: 59 °F (at 4:00 am)
Average temperature yesterday: 82 °F

High & Low Weather Summary for the Past Weeks

 TemperatureHumidityPressure
High88 °F (Jul 15, 5:00 pm)100% (Jul 15, 10:00 pm)32.52 "Hg (Jul 15, 10:00 pm)
Low59 °F (Jul 28, 4:00 am)55% (Jul 26, 2:00 pm)29.80 "Hg (Jul 27, 4:00 pm)
Average81 °F84%29.92 "Hg
* Reported Jul 14 11:00 am — Jul 29 11:00 am, Banjul. Weather by CustomWeather, © 2017

Note: Actual official high and low records may vary slightly from our data, if they occured in-between our weather recording intervals... More about our weather records

Advertising

Banjul Weather History for the Previous 24 Hours

Scroll right to see more
 ConditionsComfort  
Time TempWeatherWind HumidityBarometerVisibility
11:00 am
Sat, Jul 29
84 °FBroken clouds.7 mph84%29.95 "HgN/A
10:00 am82 °FScattered clouds.8 mph84%29.95 "HgN/A
9:00 am81 °FBroken clouds.No wind94%29.92 "HgN/A
8:00 am79 °FWarm.N/A94%29.92 "HgN/A
7:00 am79 °FWarm.N/A94%29.92 "HgN/A
6:00 am79 °FLight rain. Partly cloudy.No wind94%29.89 "Hg6 mi
5:00 am79 °FPassing clouds.2 mph94%29.89 "HgN/A
4:00 am79 °FPassing clouds.1 mph94%29.89 "HgN/A
3:00 am79 °FPassing clouds.2 mph94%29.89 "HgN/A
2:00 am79 °FPassing clouds.2 mph94%29.89 "HgN/A
1:00 am79 °FPartly cloudy.6 mph94%29.89 "HgN/A
12:00 am79 °FPartly cloudy.6 mph94%29.89 "HgN/A
11:00 pm
Fri, Jul 28
79 °FThunderstorms. Partly cloudy.12 mph94%29.89 "HgN/A
10:00 pm81 °FThunderstorms. Passing clouds.13 mph89%29.89 "HgN/A
9:00 pm81 °FPassing clouds.No wind84%29.86 "HgN/A
8:00 pm82 °FThunderstorms. Passing clouds.6 mph84%29.86 "HgN/A
7:00 pm82 °FThunderstorms. Partly sunny.6 mph84%29.83 "HgN/A
6:00 pm82 °FThunderstorms. Broken clouds.No wind79%29.83 "HgN/A
5:34 pm84 °FRain. Broken clouds.6 mph74%29.83 "HgN/A
5:00 pm84 °FThunderstorms. Broken clouds.6 mph74%29.83 "HgN/A
4:00 pm86 °FThunderstorms. Scattered clouds.12 mph75%29.83 "HgN/A
3:19 pm88 °FThunderstorms. Scattered clouds.9 mph70%29.83 "HgN/A
3:12 pm88 °FScattered clouds.9 mph70%29.83 "HgN/A
3:00 pm88 °FScattered clouds.9 mph70%29.83 "HgN/A
2:00 pm88 °FScattered clouds.6 mph70%29.86 "HgN/A
1:00 pm88 °FScattered clouds.No wind70%29.86 "HgN/A
12:00 pm86 °FScattered clouds.6 mph70%29.86 "HgN/A
11:00 am86 °FScattered clouds.No wind70%29.89 "HgN/A
Weather by CustomWeather, © 2017

See weather overviewHow to use our weather pages